GW3869 Weather Reports


time (UTC)temp
F
wind
direction
speed
knots
gust
knots
rain 1hr
in
rain 24hr
in
rain mn
in
humidity
%
barometer
mb
20260509024607 63 169 4.3 5.2 0.00 0.00 0.00 48 1008.3
20260509024103 63 167 4.3 5.2 0.00 0.00 0.00 48 1008.4
20260509023601 63 166 4.3 5.2 0.00 0.00 0.00 48 1008.3
20260509023058 63 171 4.3 5.2 0.00 0.00 0.00 47 1008.3
20260509022554 63 176 6.1 6.1 0.00 0.00 0.00 48 1008.4
20260509022052 63 177 5.2 6.1 0.00 0.00 0.00 47 1008.3
20260509021544 63 179 6.1 6.1 0.00 0.00 0.00 47 1008.3
20260509021041 64 176 5.2 6.1 0.00 0.00 0.00 47 1008.3
20260509020539 64 173 5.2 6.1 0.00 0.00 0.00 46 1008.1
20260509020036 64 176 5.2 5.2 0.00 0.00 0.00 47 1008.3
20260509015535 64 172 4.3 6.1 0.00 0.00 0.00 46 1008.2
20260509015032 64 171 5.2 6.1 0.00 0.00 0.00 47 1008.3
20260509014528 64 173 6.1 6.1 0.00 0.00 0.00 47 1008.2
20260509014025 64 172 5.2 5.2 0.00 0.00 0.00 46 1008.2
20260509013522 64 175 5.2 5.2 0.00 0.00 0.00 46 1008.2
20260509013017 64 175 5.2 5.2 0.00 0.00 0.00 46 1008.0
20260509012514 64 174 4.3 5.2 0.00 0.00 0.00 46 1008.1
20260509012010 64 174 4.3 5.2 0.00 0.00 0.00 46 1008.2
20260509011509 64 165 5.2 5.2 0.00 0.00 0.00 46 1008.1
20260509011006 64 167 4.3 6.1 0.00 0.00 0.00 46 1008.1
20260509010503 65 174 4.3 5.2 0.00 0.00 0.00 45 1008.3
20260509005954 65 174 4.3 5.2 0.00 0.00 0.00 45 1008.1
20260509005452 65 175 4.3 5.2 0.00 0.00 0.00 45 1008.4
20260509004946 65 173 4.3 5.2 0.00 0.00 0.00 46 1008.2
20260509004443 65 167 4.3 6.1 0.00 0.00 0.00 45 1008.2
20260509003941 65 173 4.3 6.1 0.00 0.00 0.00 45 1008.2
20260509003439 65 180 5.2 5.2 0.00 0.00 0.00 45 1008.0
20260509002935 65 179 4.3 6.1 0.00 0.00 0.00 46 1008.0
20260509002433 65 171 4.3 5.2 0.00 0.00 0.00 45 1007.9
20260509001930 65 170 5.2 6.1 0.00 0.00 0.00 45 1007.9
20260509001427 66 170 5.2 5.2 0.00 0.00 0.00 45 1008.0
20260509000924 66 167 5.2 6.1 0.00 0.00 0.00 45 1007.8
20260509000422 66 180 6.1 6.1 0.00 0.00 0.00 45 1008.0
20260508235917 66 174 5.2 6.1 0.00 0.00 0.00 44 1008.0
20260508235415 66 176 5.2 6.1 0.00 0.00 0.00 45 1008.0
20260508234911 66 178 5.2 5.2 0.00 0.00 0.00 44 1008.0
20260508234408 66 174 5.2 5.2 0.00 0.00 0.00 44 1008.1
20260508233906 67 174 5.2 6.1 0.00 0.00 0.00 44 1007.9
20260508233405 67 173 5.2 5.2 0.00 0.00 0.00 43 1007.9
20260508232856 67 171 4.3 6.1 0.00 0.00 0.00 43 1007.9
20260508232352 67 174 5.2 5.2 0.00 0.00 0.00 43 1008.1
20260508231851 67 178 4.3 6.1 0.00 0.00 0.00 44 1007.9
20260508231346 67 187 6.1 6.1 0.00 0.00 0.00 45 1007.9
20260508230843 67 180 5.2 6.1 0.00 0.00 0.00 42 1008.0
20260508230339 67 176 4.3 7.8 0.00 0.00 0.00 42 1008.2
20260508225837 67 177 4.3 6.1 0.00 0.00 0.00 43 1008.0
20260508225334 67 174 4.3 6.1 0.00 0.00 0.00 43 1007.8
20260508224832 67 178 5.2 6.1 0.00 0.00 0.00 43 1008.0
20260508224329 67 177 5.2 5.2 0.00 0.00 0.00 43 1007.8
20260508223826 68 178 4.3 6.1 0.00 0.00 0.00 42 1007.9
20260508223323 67 174 4.3 7.8 0.00 0.00 0.00 42 1007.7
20260508222821 68 166 4.3 6.1 0.00 0.00 0.00 43 1007.9
20260508222318 68 174 5.2 6.1 0.00 0.00 0.00 40 1007.7
20260508221815 68 176 4.3 7.8 0.00 0.00 0.00 39 1007.9
20260508221310 69 176 5.2 8.7 0.00 0.00 0.00 40 1007.6
20260508220807 69 163 5.2 8.7 0.00 0.00 0.00 40 1007.6
20260508220303 68 176 4.3 7.8 0.00 0.00 0.00 39 1007.7
20260508215800 68 177 7.0 7.8 0.00 0.00 0.00 39 1007.5
20260508215256 68 181 7.0 9.6 0.00 0.00 0.00 39 1007.4
20260508214754 69 190 7.0 9.6 0.00 0.00 0.00 39 1007.8
20260508214250 69 184 6.1 7.8 0.00 0.00 0.00 38 1007.9
20260508213747 70 177 4.3 7.8 0.00 0.00 0.00 38 1007.9
20260508213244 71 180 7.0 8.7 0.00 0.00 0.00 39 1007.8
20260508212735 70 204 7.8 10.4 0.00 0.00 0.00 37 1007.7
20260508212232 70 184 6.1 11.3 0.00 0.00 0.00 39 1008.1
20260508211727 69 197 6.1 9.6 0.00 0.00 0.00 39 1007.8
20260508211223 69 190 7.8 8.7 0.00 0.00 0.00 40 1008.2
20260508210721 69 180 6.1 10.4 0.00 0.00 0.00 39 1008.2
20260508210218 69 188 7.0 8.7 0.00 0.00 0.00 38 1008.1
20260508205715 70 182 5.2 8.7 0.00 0.00 0.00 39 1008.1
20260508205211 71 184 6.1 10.4 0.00 0.00 0.00 37 1008.3
20260508204707 70 205 8.7 10.4 0.00 0.00 0.00 37 1008.4
20260508204204 71 178 4.3 10.4 0.00 0.00 0.00 38 1008.3
20260508203700 70 157 2.6 7.8 0.00 0.00 0.00 37 1008.5
20260508203156 69 187 5.2 9.6 0.00 0.00 0.00 39 1008.7
20260508202652 69 185 8.7 9.6 0.00 0.00 0.00 38 1008.8
20260508202150 69 162 6.1 7.8 0.00 0.00 0.00 39 1008.7
20260508201646 70 193 7.0 7.0 0.00 0.00 0.00 37 1009.0
20260508201143 69 176 7.8 8.7 0.00 0.00 0.00 39 1009.1
20260508200640 69 191 4.3 7.8 0.00 0.00 0.00 40 1009.0
20260508200136 70 193 6.1 8.7 0.00 0.00 0.00 40 1009.3
20260508195632 70 181 6.1 7.8 0.00 0.00 0.00 37 1009.3
20260508195128 71 177 5.2 7.8 0.00 0.00 0.00 36 1009.2
20260508194625 71 190 7.0 8.7 0.00 0.00 0.00 36 1009.3
20260508194123 71 189 5.2 7.8 0.00 0.00 0.00 38 1009.5
20260508193620 70 188 4.3 5.2 0.00 0.00 0.00 38 1009.5
20260508193116 71 190 6.1 8.7 0.00 0.00 0.00 37 1009.5
20260508192613 71 184 7.8 9.6 0.00 0.00 0.00 36 1009.5
20260508192110 71 203 4.3 7.8 0.00 0.00 0.00 36 1009.6
20260508191607 71 205 4.3 12.2 0.00 0.00 0.00 37 1009.6
20260508191104 72 195 7.0 7.8 0.00 0.00 0.00 38 1009.5
20260508190601 71 191 6.1 7.0 0.00 0.00 0.00 38 1009.7
20260508190057 71 181 6.1 7.8 0.00 0.00 0.00 33 1009.7
20260508185554 70 183 4.3 9.6 0.00 0.00 0.00 35 1009.9
20260508185052 70 186 5.2 11.3 0.00 0.00 0.00 34 1009.9
20260508184549 71 197 7.0 8.7 0.00 0.00 0.00 37 1009.8
20260508184045 71 191 7.0 9.6 0.00 0.00 0.00 37 1010.0
20260508183541 71 185 6.1 7.0 0.00 0.00 0.00 37 1010.1
20260508183037 70 180 7.0 7.8 0.00 0.00 0.00 38 1010.2
20260508182534 68 195 4.3 9.6 0.00 0.00 0.00 39 1010.3
20260508182031 69 190 5.2 8.7 0.00 0.00 0.00 36 1010.1
20260508181526 70 180 7.8 12.2 0.00 0.00 0.00 38 1010.5
20260508181024 70 200 6.1 9.6 0.00 0.00 0.00 37 1010.5
20260508180520 71 192 5.2 7.8 0.00 0.00 0.00 35 1010.6
20260508180017 71 201 5.2 8.7 0.00 0.00 0.00 37 1010.5
20260508175513 71 201 6.1 7.8 0.00 0.00 0.00 42 1010.9
20260508175011 71 180 4.3 7.0 0.00 0.00 0.00 42 1010.8
20260508174508 71 188 5.2 7.8 0.00 0.00 0.00 40 1010.8
20260508174005 70 196 6.1 6.1 0.00 0.00 0.00 44 1011.1
20260508173502 69 202 6.1 8.7 0.00 0.00 0.00 38 1010.9
20260508172958 70 212 12.2 12.2 0.00 0.00 0.00 36 1011.0
20260508172455 69 156 6.1 9.6 0.00 0.00 0.00 44 1011.0
20260508171951 69 200 6.1 7.8 0.00 0.00 0.00 38 1011.2
20260508171448 69 190 4.3 9.6 0.00 0.00 0.00 39 1011.3
20260508170944 69 152 7.8 9.6 0.00 0.00 0.00 38 1011.7
20260508170442 69 190 5.2 7.8 0.00 0.00 0.00 40 1011.6
20260508165939 69 192 5.2 8.7 0.00 0.00 0.00 37 1011.7
20260508165437 68 165 4.3 7.8 0.00 0.00 0.00 44 1011.9
20260508164932 69 180 5.2 8.7 0.00 0.00 0.00 38 1011.9
20260508164430 67 197 7.0 9.6 0.00 0.00 0.00 44 1012.4
20260508163927 67 193 4.3 7.0 0.00 0.00 0.00 41 1012.1
20260508163425 67 193 7.8 7.8 0.00 0.00 0.00 41 1012.3
20260508162926 68 180 5.2 7.0 0.00 0.00 0.00 40 1012.2
20260508162424 67 200 10.4 10.4 0.00 0.00 0.00 41 1012.4
20260508161920 67 180 3.5 7.8 0.00 0.00 0.00 44 1012.4
20260508161412 67 193 7.8 8.7 0.00 0.00 0.00 45 1012.5
20260508160909 67 188 7.0 7.8 0.00 0.00 0.00 47 1012.5
20260508160408 66 188 3.5 7.0 0.00 0.00 0.00 49 1012.7
20260508155903 66 207 7.8 9.6 0.00 0.00 0.00 42 1012.6
20260508155401 66 194 4.3 7.8 0.00 0.00 0.00 45 1012.7
20260508154857 66 190 4.3 8.7 0.00 0.00 0.00 45 1012.7
20260508154355 66 179 4.3 6.1 0.00 0.00 0.00 47 1012.8
20260508153851 65 151 4.3 5.2 0.00 0.00 0.00 48 1013.2
20260508153349 65 188 4.3 8.7 0.00 0.00 0.00 47 1013.0
20260508152845 64 178 6.1 7.8 0.00 0.00 0.00 45 1013.0
20260508152342 64 196 6.1 8.7 0.00 0.00 0.00 46 1013.2
20260508151838 64 191 5.2 7.8 0.00 0.00 0.00 46 1013.2
20260508151335 63 186 6.1 7.0 0.00 0.00 0.00 46 1013.3
20260508150831 63 158 4.3 7.0 0.00 0.00 0.00 45 1013.4
20260508150328 64 183 6.1 6.1 0.00 0.00 0.00 48 1013.3
20260508145825 63 159 5.2 5.2 0.00 0.00 0.00 51 1013.2
20260508145321 62 197 5.2 7.0 0.00 0.00 0.00 47 1013.5
20260508144818 62 169 4.3 6.1 0.00 0.00 0.00 56 1013.5
20260508144316 61 146 4.3 5.2 0.00 0.00 0.00 53 1013.5
20260508143813 61 194 5.2 7.0 0.00 0.00 0.00 47 1013.7
20260508143310 61 182 4.3 9.6 0.00 0.00 0.00 49 1013.9
20260508142807 60 177 4.3 7.0 0.00 0.00 0.00 54 1013.5
20260508142306 60 158 4.3 5.2 0.00 0.00 0.00 55 1013.8
20260508141759 59 171 6.1 7.8 0.00 0.00 0.00 53 1013.8
20260508141257 59 168 5.2 6.1 0.00 0.00 0.00 56 1013.7
20260508140754 58 171 5.2 7.0 0.00 0.00 0.00 54 1013.7
20260508140251 57 164 4.3 7.8 0.00 0.00 0.00 56 1013.5
20260508135747 57 165 5.2 6.1 0.00 0.00 0.00 60 1013.7
20260508135243 56 157 5.2 7.0 0.00 0.00 0.00 58 1014.1
20260508134738 56 174 4.3 5.2 0.00 0.00 0.00 61 1013.7
20260508134236 55 169 4.3 5.2 0.00 0.00 0.00 60 1014.0
20260508133732 56 172 4.3 5.2 0.00 0.00 0.00 59 1013.9
20260508133230 55 163 4.3 4.3 0.00 0.00 0.00 60 1013.8
20260508132728 55 157 5.2 7.8 0.00 0.00 0.00 58 1013.8
20260508132225 55 160 4.3 6.1 0.00 0.00 0.00 61 1013.7
20260508131720 53 132 4.3 6.1 0.00 0.00 0.00 65 1013.8
20260508131217 53 157 4.3 7.0 0.00 0.00 0.00 65 1013.9
20260508130714 52 158 5.2 5.2 0.00 0.00 0.00 65 1013.9
20260508130212 51 156 5.2 6.1 0.00 0.00 0.00 64 1014.0
20260508125706 51 155 5.2 6.1 0.00 0.00 0.00 65 1014.0
20260508125204 50 145 5.2 6.1 0.00 0.00 0.00 65 1013.7
20260508124702 50 149 5.2 6.1 0.00 0.00 0.00 66 1013.7
20260508124159 50 168 6.1 7.0 0.00 0.00 0.00 67 1013.9
20260508123657 49 164 6.1 6.1 0.00 0.00 0.00 67 1013.8
20260508123155 49 147 5.2 5.2 0.00 0.00 0.00 68 1013.7
20260508122650 49 145 5.2 6.1 0.00 0.00 0.00 69 1013.9
20260508122147 48 150 5.2 6.1 0.00 0.00 0.00 69 1013.8
20260508121645 48 141 5.2 6.1 0.00 0.00 0.00 71 1013.7
20260508121143 47 144 5.2 6.1 0.00 0.00 0.00 72 1013.5
20260508120640 46 142 6.1 6.1 0.00 0.00 0.00 74 1013.3
20260508120139 45 147 5.2 7.0 0.00 0.00 0.00 77 1013.4
20260508115636 44 143 5.2 6.1 0.00 0.00 0.00 79 1013.7
20260508115132 43 144 5.2 7.0 0.00 0.00 0.00 79 1013.4
20260508114629 43 142 6.1 6.1 0.00 0.00 0.00 79 1013.3
20260508114125 43 148 6.1 6.1 0.00 0.00 0.00 79 1013.4
20260508113623 42 146 6.1 7.0 0.00 0.00 0.00 80 1013.4
20260508113121 42 149 6.1 6.1 0.00 0.00 0.00 81 1013.3
20260508112617 42 143 5.2 6.1 0.00 0.00 0.00 82 1013.4
20260508112114 41 155 5.2 6.1 0.00 0.00 0.00 82 1013.2
20260508111610 41 146 5.2 6.1 0.00 0.00 0.00 82 1013.1
20260508111108 41 149 5.2 6.1 0.00 0.00 0.00 82 1013.3
20260508110606 41 147 5.2 6.1 0.00 0.00 0.00 82 1013.1
20260508110101 41 149 5.2 6.1 0.00 0.00 0.00 81 1013.1
20260508105556 42 149 5.2 6.1 0.00 0.00 0.00 81 1013.1
20260508105054 41 149 5.2 6.1 0.00 0.00 0.00 81 1013.0
20260508104552 41 139 5.2 6.1 0.00 0.00 0.00 81 1013.0
20260508104047 41 133 6.1 6.1 0.00 0.00 0.00 80 1013.0
20260508103545 42 143 5.2 6.1 0.00 0.00 0.00 81 1013.2
20260508103042 42 141 5.2 6.1 0.00 0.00 0.00 81 1013.1
20260508102540 42 137 5.2 6.1 0.00 0.00 0.00 81 1013.0
20260508102037 42 142 5.2 7.0 0.00 0.00 0.00 80 1013.0
20260508101535 42 141 5.2 6.1 0.00 0.00 0.00 80 1013.2
20260508101032 42 136 5.2 6.1 0.00 0.00 0.00 80 1013.0
20260508100530 42 152 5.2 5.2 0.00 0.00 0.00 81 1013.0
20260508100026 42 146 5.2 5.2 0.00 0.00 0.00 81 1012.8
20260508095523 42 144 5.2 6.1 0.00 0.00 0.00 81 1013.1
20260508095020 42 139 5.2 6.1 0.00 0.00 0.00 80 1012.9
20260508094517 42 137 5.2 6.1 0.00 0.00 0.00 80 1012.9
20260508094014 42 144 5.2 6.1 0.00 0.00 0.00 81 1013.0
20260508093511 42 137 6.1 6.1 0.00 0.00 0.00 81 1012.9
20260508093009 42 138 6.1 7.0 0.00 0.00 0.00 79 1012.9
20260508092506 42 138 5.2 7.0 0.00 0.00 0.00 79 1012.8
20260508092005 42 139 7.0 7.0 0.00 0.00 0.00 79 1012.8
20260508091501 42 131 6.1 6.1 0.00 0.00 0.00 80 1012.8
20260508090958 42 129 5.2 6.1 0.00 0.00 0.00 79 1013.0
20260508090457 42 133 6.1 6.1 0.00 0.00 0.00 80 1012.8
20260508085953 42 133 6.1 6.1 0.00 0.00 0.00 80 1012.7
20260508085449 42 135 6.1 6.1 0.00 0.00 0.00 80 1012.9
20260508084947 42 130 5.2 6.1 0.00 0.00 0.00 80 1013.0
20260508084443 42 130 5.2 6.1 0.00 0.00 0.00 79 1012.8
20260508083941 42 134 6.1 6.1 0.00 0.00 0.00 81 1012.9
20260508083438 42 129 5.2 6.1 0.00 0.00 0.00 81 1012.7
20260508082933 42 125 6.1 6.1 0.00 0.00 0.00 80 1012.8
20260508082430 42 120 5.2 6.1 0.00 0.00 0.00 79 1012.8
20260508081928 43 132 5.2 7.0 0.00 0.00 0.00 78 1012.7
20260508081424 43 132 6.1 6.1 0.00 0.00 0.00 77 1012.8
20260508080920 43 137 5.2 6.1 0.00 0.00 0.00 77 1012.6
20260508080413 43 137 6.1 7.0 0.00 0.00 0.00 77 1012.8
20260508075909 43 138 6.1 7.0 0.00 0.00 0.00 76 1012.8
20260508075407 43 128 5.2 6.1 0.00 0.00 0.00 77 1012.8
20260508074905 43 129 4.3 6.1 0.00 0.00 0.00 75 1012.7
20260508074401 43 136 5.2 5.2 0.00 0.00 0.00 75 1012.4
20260508073858 44 139 5.2 6.1 0.00 0.00 0.00 76 1012.7
20260508073356 44 138 6.1 6.1 0.00 0.00 0.00 76 1012.7
20260508072852 44 139 6.1 7.0 0.00 0.00 0.00 75 1012.7
20260508072349 44 140 5.2 7.0 0.00 0.00 0.00 75 1012.6
20260508071846 44 137 5.2 7.0 0.00 0.00 0.00 75 1012.8
20260508071345 44 143 5.2 6.1 0.00 0.00 0.00 76 1012.9
20260508070842 44 137 7.0 7.0 0.00 0.00 0.00 75 1012.8
20260508070340 44 142 5.2 7.0 0.00 0.00 0.00 75 1013.0
20260508065837 44 139 5.2 6.1 0.00 0.00 0.00 75 1013.2
20260508065335 44 135 4.3 6.1 0.00 0.00 0.00 75 1013.1
20260508064833 44 130 5.2 6.1 0.00 0.00 0.00 76 1013.2
20260508064330 44 121 4.3 5.2 0.00 0.00 0.00 76 1013.2
20260508063828 44 119 5.2 6.1 0.00 0.00 0.00 76 1013.3
20260508063326 45 129 5.2 6.1 0.00 0.00 0.00 74 1013.4
20260508062822 45 138 6.1 6.1 0.00 0.00 0.00 74 1013.3
20260508062320 44 138 5.2 6.1 0.00 0.00 0.00 75 1013.3
20260508061816 44 128 5.2 5.2 0.00 0.00 0.00 76 1013.4
20260508061314 44 123 4.3 5.2 0.00 0.00 0.00 76 1013.5
20260508060810 45 122 4.3 4.3 0.00 0.00 0.00 75 1013.7
20260508060308 45 131 4.3 6.1 0.00 0.00 0.00 73 1013.7
20260508055803 45 138 6.1 7.0 0.00 0.00 0.00 73 1013.9
20260508055301 45 145 5.2 6.1 0.00 0.00 0.00 73 1013.8
20260508054757 45 137 6.1 6.1 0.00 0.00 0.00 72 1013.5
20260508054255 46 142 5.2 6.1 0.00 0.00 0.00 72 1013.8
20260508053751 46 134 5.2 6.1 0.00 0.00 0.00 71 1013.7
20260508053249 46 141 6.1 6.1 0.00 0.00 0.00 71 1013.4
20260508052746 45 145 6.1 6.1 0.00 0.00 0.00 71 1013.3
20260508052243 45 149 5.2 5.2 0.00 0.00 0.00 73 1013.8
20260508051739 45 146 5.2 6.1 0.00 0.00 0.00 73 1013.8
20260508051235 45 136 4.3 6.1 0.00 0.00 0.00 72 1013.7
20260508050732 45 133 5.2 6.1 0.00 0.00 0.00 72 1013.5
20260508050230 45 143 4.3 5.2 0.00 0.00 0.00 72 1013.3
20260508045724 46 138 5.2 6.1 0.00 0.00 0.00 72 1013.5
20260508045222 46 138 6.1 6.1 0.00 0.00 0.00 71 1013.4
20260508044720 46 148 4.3 5.2 0.00 0.00 0.00 70 1013.4
20260508044216 46 143 5.2 6.1 0.00 0.00 0.00 70 1013.5
20260508043712 46 141 5.2 6.1 0.00 0.00 0.00 70 1013.7
20260508043210 46 146 5.2 6.1 0.00 0.00 0.00 70 1013.3
20260508042706 46 143 6.1 6.1 0.00 0.00 0.00 70 1013.4
20260508042204 46 146 5.2 6.1 0.00 0.00 0.00 69 1013.3
20260508041700 46 152 5.2 6.1 0.00 0.00 0.00 70 1013.4
20260508041157 47 149 5.2 6.1 0.00 0.00 0.00 69 1013.5
20260508040653 47 140 6.1 6.1 0.00 0.00 0.00 68 1013.3
20260508040151 47 142 5.2 6.1 0.00 0.00 0.00 68 1013.7
20260508035648 47 141 5.2 6.1 0.00 0.00 0.00 67 1013.3
20260508035146 47 142 5.2 6.1 0.00 0.00 0.00 66 1013.4
20260508034642 47 133 5.2 6.1 0.00 0.00 0.00 65 1013.3
20260508034139 47 132 6.1 7.0 0.00 0.00 0.00 67 1013.3
20260508033636 47 140 5.2 6.1 0.00 0.00 0.00 67 1013.7
20260508033135 47 141 5.2 6.1 0.00 0.00 0.00 67 1013.5
20260508032631 47 144 5.2 5.2 0.00 0.00 0.00 68 1013.3
20260508032128 47 140 5.2 6.1 0.00 0.00 0.00 69 1013.4
20260508031625 47 137 5.2 6.1 0.00 0.00 0.00 69 1013.4
20260508031121 48 139 5.2 6.1 0.00 0.00 0.00 69 1013.3
20260508030618 48 138 6.1 6.1 0.00 0.00 0.00 65 1013.4
20260508030116 49 139 5.2 6.1 0.00 0.00 0.00 63 1013.2
20260508025612 49 134 5.2 6.1 0.00 0.00 0.00 61 1013.5
20260508025109 49 137 5.2 5.2 0.00 0.00 0.00 59 1013.3